{"data":{"norad_id":55310,"intl_designator":"2023-010AT","name":"STARLINK-5309","alt_names":[],"object_type":"PAYLOAD","status":"ACTIVE","operator":null,"country":"US","launch_date":"2023-01-19","launch_site_code":"AFWTR","launch_vehicle":null,"mission":null,"orbit_class":"UNKNOWN","rcs_meters":null,"size_class":null,"mass_kg":null,"dimensions":null,"purposes":["comms"],"wikipedia_slug":null,"has_3d_model":false,"image_url":null,"decayed_at":null,"tle_current":{"epoch":"2026-09-20T22:00:03.000096Z","epoch_age_seconds":60662,"freshness":"FRESH","line1":"1 55310U 23010AT  26263.91670139  .00054855  00000+0  36052-2 0  9999","line2":"2 55310  70.0003 232.1930 0001870 221.3628 227.6399 15.07298924  5769","mean_motion":15.07298924,"eccentricity":0.000187,"inclination_deg":70.0003,"raan_deg":232.193,"arg_perigee_deg":221.3628,"mean_anomaly_deg":227.6399,"bstar":0.0036052,"rev_number":576,"period_min":95.535130893519,"perigee_km":543.16332942678,"apogee_km":545.75237990243,"semimajor_km":6922.5948546646,"source":"CELESTRAK","updated_at":"2026-09-21T09:00:33.174031Z"}}}